Tracking 35237 objects as of 6-Sep-2026
HD Live streaming from Space Station
objects crossing your sky now

STARLINK-31661

Track STARLINK-31661 now!
10-day predictions
STARLINK-31661 is classified as:


NORAD ID: 59735
Int'l Code: 2024-090F
Launch date: May 13, 2024
Source: United States (US)
Launch site: AIR FORCE EASTERN TEST RANGE (AFETR)
Your satellite tracking list
Your tracking list is empty




NASA's NSSDC Master Catalog

Two Line Element Set (TLE):
1 59735U 24090F   26249.03887377  .00000257  00000-0  18857-4 0  9997
2 59735  43.0017 237.9331 0001288 263.0247  97.0458 15.27576129131101
Source of the keplerian elements: AFSPC